Location: Chemnitz
(49.5500°N, 11.5830°E)
Time: 07:01:25
(UTC+01:00)

ISS - Pass Details

Date: 09 January 2018
Orbit: 402 x 407 km, 51.6° (Epoch: 18 January)

Event Time Altitude Azimuth Distance (km) Brightness Sun altitude
Exits shadow 05:48:47 53° 57° (ENE) 506 -3.2 -21.7°
Drops below altitude 10° 05:51:33 10° 92° (E) 1,468 0.1 -21.3°
Sets 05:53:39 0° 95° (E) 2,329 1.6 -20.9°
